• Join FlightAware (Why Join?)
  • Login
  • US Flag 
08:29PM EST


 

Airport Tracker/Info


-or-


 

Live Flight TrackerFlight Track Log ✈ N6GD ✈ 02-Jun-2014 ✈ KLAS - KLAX

Flight Track Log - Related Links

Times and Time Zones

All times are in EDT time to prevent confusion due to time zone crossing. See the N6GD flight status page for this flight to view local times or setup timezone preferences in your user account.

Time Position Orientation Groundspeed Altitude Reporting Facility
EDT Latitude Longitude Course Direction KTS MPH feet Rate Location/Type
08:43PM 36.0694 -115.1678 201° Southwest 165 190 3,100  Level Los Angeles Center
08:44PM 36.0147 -115.1936 201° Southwest 189 217 6,000 2,460 Climbing Los Angeles Center
08:45PM 36.0025 -115.2078 223° Southwest 197 227 6,700 2,340 Climbing Los Angeles Center
08:45PM 35.9747 -115.2386 222° Southwest 221 254 8,400 2,460 Climbing Los Angeles Center
08:46PM 35.9522 -115.2397 182° South 215 247 9,300 2,160 Climbing Los Angeles Center
08:47PM 35.8844 -115.2531 189° South 241 277 11,400 2,040 Climbing Los Angeles Center
08:48PM 35.8072 -115.2681 189° South 275 316 13,600 2,280 Climbing Los Angeles Center
08:49PM 35.7231 -115.2856 190° South 287 330 16,200 2,460 Climbing Los Angeles Center
08:50PM 35.6497 -115.3297 206° Southwest 292 336 18,700 2,220 Climbing Los Angeles Center
08:51PM 35.5939 -115.4067 228° Southwest 297 342 20,800 1,560 Climbing Los Angeles Center
08:52PM 35.5375 -115.4833 228° Southwest 300 345 22,000 540 Climbing Los Angeles Center
08:53PM 35.4631 -115.5814 227° Southwest 336 387 22,000  Level Los Angeles Center
08:54PM 35.3989 -115.6697 228° Southwest 343 395 22,000  Level Los Angeles Center
08:55PM 35.3319 -115.7561 226° Southwest 347 399 22,000  Level Los Angeles Center
08:56PM 35.2667 -115.8431 227° Southwest 347 399 22,000  Level Los Angeles Center
08:57PM 35.2119 -115.9158 227° Southwest 290 334 22,000  Level Los Angeles Center
08:58PM 35.1622 -115.9831 228° Southwest 268 308 22,000  Level Los Angeles Center
08:59PM 35.1122 -116.0489 227° Southwest 268 308 22,000  Level Los Angeles Center
09:00PM 35.0500 -116.1306 227° Southwest 269 310 22,000  Level Los Angeles Center
09:01PM 34.9917 -116.2078 227° Southwest 292 336 22,000  Level Los Angeles Center
09:02PM 34.9303 -116.2867 227° Southwest 314 361 22,000  Level Los Angeles Center
09:03PM 34.8714 -116.3661 228° Southwest 315 362 22,000  Level Los Angeles Center
09:04PM 34.8128 -116.4417 227° Southwest 308 354 22,000  Level Los Angeles Center
09:05PM 34.7475 -116.5086 220° Southwest 304 350 22,000  Level Los Angeles Center
09:06PM 34.6767 -116.5747 218° Southwest 316 364 22,000  Level Los Angeles Center
09:07PM 34.5903 -116.6567 218° Southwest 325 374 22,000 -420 Level Los Angeles Center
09:08PM 34.5206 -116.7211 217° Southwest 316 364 21,200 -900 Descending Los Angeles Center
09:09PM 34.4489 -116.7883 218° Southwest 318 366 20,200 -960 Descending Los Angeles Center
09:11PM 34.3814 -116.8519 218° Southwest 311 358 19,300 -600 Descending Los Angeles Center
09:12PM 34.3183 -116.9111 218° Southwest 291 335 19,000 -180 Descending Los Angeles Center
09:13PM 34.2569 -116.9678 217° Southwest 282 325 19,000 -60 Level Los Angeles Center
09:14PM 34.1956 -117.0239 217° Southwest 279 321 18,900 -960 Descending Los Angeles Center
09:15PM 34.1256 -117.0903 218° Southwest 266 306 17,100 -1,500 Descending Los Angeles Center
09:16PM 34.0850 -117.1569 234° Southwest 279 321 15,800 -1,500 Descending Los Angeles Center
09:17PM 34.0500 -117.2500 246° West 280 322 14,200 -1,020 Descending Southern California TRACON
09:18PM 34.0333 -117.3333 256° West 271 312 13,900 -840 Descending Southern California TRACON
09:19PM 34.0333 -117.4333 270° West 289 333 12,600 -1,440 Descending Southern California TRACON
09:20PM 34.0333 -117.5167 270° West 266 306 11,100 -1,380 Descending Southern California TRACON
09:21PM 34.0333 -117.6167 270° West 268 308 9,900 -600 Descending Southern California TRACON
09:22PM 34.0167 -117.7000 256° West 258 297 9,900 -600 Level Southern California TRACON
09:23PM 34.0167 -117.8000 270° West 271 312 8,700 -1,320 Descending Southern California TRACON
09:24PM 34.0000 -117.8833 256° West 260 299 7,300 -1,200 Descending Southern California TRACON
09:25PM 34.0000 -117.9833 270° West 253 291 6,300 -1,260 Descending Southern California TRACON
09:26PM 33.9833 -118.0500 253° West 217 250 4,700 -1,380 Descending Southern California TRACON
09:27PM 33.9833 -118.1167 270° West 183 211 3,600 -1,260 Descending Southern California TRACON
09:28PM 33.9833 -118.1667 270° West 185 213 2,400 -660 Descending Southern California TRACON
09:29PM 33.9667 -118.2333 253° West 181 208 2,300 -180 Descending Southern California TRACON
09:30PM 33.9667 -118.2833 270° West 151 174 2,100 -480 Descending Southern California TRACON
09:31PM 33.9667 -118.3333 270° West 121 139 1,400 -720 Descending Southern California TRACON
09:32PM 33.9500 -118.3667 239° Southwest 126 145 700 -660 Descending Southern California TRACON
09:32PM 33.9539 -118.3889 282° West 129 148 400 -360 Descending Los Angeles Center
09:33PM 33.9506 -118.4267 264° West 128 147 200 -240 Descending Los Angeles Center
09:35PM 33.9425 -118.4081 259° West  Level Estimated